Year,Month,Day,Hour,Minute,Value (Times are PST for temperature in C)
2008,06,27,00,00,10.40
2008,06,27,00,01,10.40
2008,06,27,00,02,10.40
2008,06,27,00,03,10.40
2008,06,27,00,04,10.40
2008,06,27,00,05,10.40
2008,06,27,00,06,10.40
2008,06,27,00,07,10.40
2008,06,27,00,08,10.40
2008,06,27,00,09,10.40
2008,06,27,00,10,10.40
2008,06,27,00,11,10.40
2008,06,27,00,12,10.40
2008,06,27,00,13,10.40
2008,06,27,00,14,10.40
2008,06,27,00,15,10.30
2008,06,27,00,16,10.30
2008,06,27,00,17,10.30
2008,06,27,00,18,10.30
2008,06,27,00,19,10.30
2008,06,27,00,20,10.30
2008,06,27,00,21,10.30
2008,06,27,00,22,10.30
2008,06,27,00,23,10.30
2008,06,27,00,24,10.20
2008,06,27,00,25,10.20
2008,06,27,00,26,10.20
2008,06,27,00,27,10.20
2008,06,27,00,28,10.20
2008,06,27,00,29,10.10
2008,06,27,00,30,10.10
2008,06,27,00,31,10.10
2008,06,27,00,32,10.10
2008,06,27,00,33,10.10
2008,06,27,00,34,10.10
2008,06,27,00,35,10.10
2008,06,27,00,36,10.10
2008,06,27,00,37,10.10
2008,06,27,00,38,10.10
2008,06,27,00,39,10.10
2008,06,27,00,40,10.10
2008,06,27,00,41,10.10
2008,06,27,00,42,10.10
2008,06,27,00,43,10.10
2008,06,27,00,44,10.10
2008,06,27,00,45,10.10
2008,06,27,00,46,10.10
2008,06,27,00,47,10.10
2008,06,27,00,48,10.10
2008,06,27,00,49,10.10
2008,06,27,00,50,10.10
2008,06,27,00,51,10.10
2008,06,27,00,52,10.10
2008,06,27,00,53,10.10
2008,06,27,00,54,10.10
2008,06,27,00,55,10.10
2008,06,27,00,56,10.10
2008,06,27,00,57,10.10
2008,06,27,00,58,10.10
2008,06,27,00,59,10.10
2008,06,27,01,00,10.10
2008,06,27,01,01,10.10
2008,06,27,01,02,10.10
2008,06,27,01,03,10.10
2008,06,27,01,04,10.10
2008,06,27,01,05,10.10
2008,06,27,01,06,10.10
2008,06,27,01,07,10.10
2008,06,27,01,08,10.10
2008,06,27,01,09,10.10
2008,06,27,01,10,10.10
2008,06,27,01,11,10.10
2008,06,27,01,12,9.90
2008,06,27,01,13,9.90
2008,06,27,01,14,9.90
2008,06,27,01,15,9.90
2008,06,27,01,16,9.90
2008,06,27,01,17,9.90
2008,06,27,01,18,9.90
2008,06,27,01,19,9.90
2008,06,27,01,20,9.90
2008,06,27,01,21,9.90
2008,06,27,01,22,9.90
2008,06,27,01,23,9.90
2008,06,27,01,24,9.90
2008,06,27,01,25,9.90
2008,06,27,01,26,9.90
2008,06,27,01,27,9.90
2008,06,27,01,28,9.90
2008,06,27,01,29,10.10
2008,06,27,01,30,10.10
2008,06,27,01,31,10.10
2008,06,27,01,32,10.10
2008,06,27,01,33,10.10
2008,06,27,01,34,10.10
2008,06,27,01,35,10.10
2008,06,27,01,36,10.00
2008,06,27,01,37,9.90
2008,06,27,01,38,9.90
2008,06,27,01,39,9.90
2008,06,27,01,40,9.90
2008,06,27,01,41,9.90
2008,06,27,01,42,9.90
2008,06,27,01,43,9.90
2008,06,27,01,44,9.90
2008,06,27,01,45,9.90
2008,06,27,01,46,9.90
2008,06,27,01,47,9.90
2008,06,27,01,48,9.90
2008,06,27,01,49,9.90
2008,06,27,01,50,9.90
2008,06,27,01,51,10.00
2008,06,27,01,52,10.10
2008,06,27,01,53,10.10
2008,06,27,01,54,10.10
2008,06,27,01,55,10.10
2008,06,27,01,56,10.10
2008,06,27,01,57,10.10
2008,06,27,01,58,10.10
2008,06,27,01,59,10.20
2008,06,27,02,00,10.20
2008,06,27,02,01,10.20
2008,06,27,02,02,10.20
2008,06,27,02,03,10.20
2008,06,27,02,04,10.20
2008,06,27,02,05,10.20
2008,06,27,02,06,10.20
2008,06,27,02,07,10.20
2008,06,27,02,08,10.10
2008,06,27,02,09,10.10
2008,06,27,02,10,10.10
2008,06,27,02,11,10.10
2008,06,27,02,12,10.10
2008,06,27,02,13,10.10
2008,06,27,02,14,10.10
2008,06,27,02,15,10.10
2008,06,27,02,16,10.10
2008,06,27,02,17,10.10
2008,06,27,02,18,10.10
2008,06,27,02,19,10.10
2008,06,27,02,20,10.10
2008,06,27,02,21,10.00
2008,06,27,02,22,9.90
2008,06,27,02,23,9.90
2008,06,27,02,24,9.90
2008,06,27,02,25,9.90
2008,06,27,02,26,9.90
2008,06,27,02,27,9.90
2008,06,27,02,28,9.90
2008,06,27,02,29,9.90
2008,06,27,02,30,9.90
2008,06,27,02,31,10.00
2008,06,27,02,32,10.10
2008,06,27,02,33,10.10
2008,06,27,02,34,10.10
2008,06,27,02,35,10.10
2008,06,27,02,36,10.10
2008,06,27,02,37,10.10
2008,06,27,02,38,10.10
2008,06,27,02,39,10.10
2008,06,27,02,40,10.10
2008,06,27,02,41,10.10
2008,06,27,02,42,10.10
2008,06,27,02,43,10.10
2008,06,27,02,44,10.10
2008,06,27,02,45,10.10
2008,06,27,02,46,10.10
2008,06,27,02,47,10.10
2008,06,27,02,48,10.10
2008,06,27,02,49,10.10
2008,06,27,02,50,10.10
2008,06,27,02,51,10.10
2008,06,27,02,52,10.10
2008,06,27,02,53,10.10
2008,06,27,02,54,10.00
2008,06,27,02,55,9.90
2008,06,27,02,56,9.90
2008,06,27,02,57,9.90
2008,06,27,02,58,9.90
2008,06,27,02,59,9.90
2008,06,27,03,00,9.90
2008,06,27,03,01,9.90
2008,06,27,03,02,9.90
2008,06,27,03,03,9.90
2008,06,27,03,04,9.90
2008,06,27,03,05,9.90
2008,06,27,03,06,9.90
2008,06,27,03,07,9.90
2008,06,27,03,08,9.90
2008,06,27,03,09,9.90
2008,06,27,03,10,9.90
2008,06,27,03,11,9.90
2008,06,27,03,12,10.00
2008,06,27,03,13,10.10
2008,06,27,03,14,10.10
2008,06,27,03,15,10.10
2008,06,27,03,16,10.10
2008,06,27,03,17,10.10
2008,06,27,03,18,10.10
2008,06,27,03,19,10.00
2008,06,27,03,20,9.90
2008,06,27,03,21,9.90
2008,06,27,03,22,9.90
2008,06,27,03,23,9.90
2008,06,27,03,24,9.90
2008,06,27,03,25,9.80
2008,06,27,03,26,9.80
2008,06,27,03,27,9.70
2008,06,27,03,28,9.70
2008,06,27,03,29,9.70
2008,06,27,03,30,9.70
2008,06,27,03,31,9.70
2008,06,27,03,32,9.70
2008,06,27,03,33,9.60
2008,06,27,03,34,9.60
2008,06,27,03,35,9.60
2008,06,27,03,36,9.60
2008,06,27,03,37,9.60
2008,06,27,03,38,9.60
2008,06,27,03,39,9.60
2008,06,27,03,40,9.70
2008,06,27,03,41,9.60
2008,06,27,03,42,9.60
2008,06,27,03,43,9.60
2008,06,27,03,44,9.60
2008,06,27,03,45,9.60
2008,06,27,03,46,9.60
2008,06,27,03,47,9.60
2008,06,27,03,48,9.60
2008,06,27,03,49,9.70
2008,06,27,03,50,9.70
2008,06,27,03,51,9.70
2008,06,27,03,52,9.70
2008,06,27,03,53,9.70
2008,06,27,03,54,9.70
2008,06,27,03,55,9.70
2008,06,27,03,56,9.70
2008,06,27,03,57,9.70
2008,06,27,03,58,9.70
2008,06,27,03,59,9.70
2008,06,27,04,00,9.70
2008,06,27,04,01,9.70
2008,06,27,04,02,9.70
2008,06,27,04,03,9.70
2008,06,27,04,05,9.70
2008,06,27,04,06,9.70
2008,06,27,04,07,9.60
2008,06,27,04,08,9.60
2008,06,27,04,09,9.60
2008,06,27,04,10,9.60
2008,06,27,04,11,9.50
2008,06,27,04,12,9.50
2008,06,27,04,13,9.50
2008,06,27,04,14,9.50
2008,06,27,04,15,9.40
2008,06,27,04,16,9.40
2008,06,27,04,17,9.40
2008,06,27,04,18,9.40
2008,06,27,04,19,9.40
2008,06,27,04,20,9.50
2008,06,27,04,21,9.50
2008,06,27,04,22,9.50
2008,06,27,04,23,9.40
2008,06,27,04,24,9.40
2008,06,27,04,25,9.40
2008,06,27,04,26,9.40
2008,06,27,04,27,9.40
2008,06,27,04,28,9.40
2008,06,27,04,29,9.40
2008,06,27,04,30,9.30
2008,06,27,04,31,9.30
2008,06,27,04,32,9.30
2008,06,27,04,33,9.30
2008,06,27,04,34,9.30
2008,06,27,04,35,9.30
2008,06,27,04,36,9.30
2008,06,27,04,37,9.30
2008,06,27,04,38,9.30
2008,06,27,04,39,9.30
2008,06,27,04,40,9.30
2008,06,27,04,41,9.30
2008,06,27,04,42,9.30
2008,06,27,04,43,9.20
2008,06,27,04,44,9.20
2008,06,27,04,45,9.20
2008,06,27,04,46,9.20
2008,06,27,04,47,9.20
2008,06,27,04,48,9.20
2008,06,27,04,49,9.20
2008,06,27,04,50,9.10
2008,06,27,04,51,9.10
2008,06,27,04,52,9.10
2008,06,27,04,53,9.10
2008,06,27,04,54,9.10
2008,06,27,04,55,9.10
2008,06,27,04,56,9.10
2008,06,27,04,57,9.00
2008,06,27,04,58,9.00
2008,06,27,04,59,9.00
2008,06,27,05,00,9.00
2008,06,27,05,01,9.00
2008,06,27,05,02,9.00
2008,06,27,05,03,9.00
2008,06,27,05,04,9.00
2008,06,27,05,05,9.00
2008,06,27,05,06,9.00
2008,06,27,05,07,9.00
2008,06,27,05,08,9.00
2008,06,27,05,09,9.00
2008,06,27,05,10,9.00
2008,06,27,05,11,9.00
2008,06,27,05,12,9.00
2008,06,27,05,13,9.00
2008,06,27,05,14,9.00
2008,06,27,05,15,9.10
2008,06,27,05,16,9.10
2008,06,27,05,17,9.10
2008,06,27,05,18,9.10
2008,06,27,05,19,9.10
2008,06,27,05,20,9.10
2008,06,27,05,21,9.20
2008,06,27,05,22,9.20
2008,06,27,05,23,9.20
2008,06,27,05,24,9.20
2008,06,27,05,25,9.20
2008,06,27,05,26,9.20
2008,06,27,05,27,9.20
2008,06,27,05,28,9.20
2008,06,27,05,29,9.20
2008,06,27,05,30,9.20
2008,06,27,05,31,9.20
2008,06,27,05,32,9.20
2008,06,27,05,33,9.20
2008,06,27,05,34,9.20
2008,06,27,05,35,9.20
2008,06,27,05,36,9.20
2008,06,27,05,37,9.20
2008,06,27,05,38,9.20
2008,06,27,05,39,9.20
2008,06,27,05,40,9.20
2008,06,27,05,41,9.20
2008,06,27,05,42,9.20
2008,06,27,05,43,9.20
2008,06,27,05,44,9.20
2008,06,27,05,45,9.20
2008,06,27,05,46,9.20
2008,06,27,05,47,9.20
2008,06,27,05,48,9.20
2008,06,27,05,49,9.20
2008,06,27,05,50,9.20
2008,06,27,05,51,9.20
2008,06,27,05,52,9.20
2008,06,27,05,53,9.20
2008,06,27,05,54,9.20
2008,06,27,05,55,9.20
2008,06,27,05,56,9.20
2008,06,27,05,57,9.20
2008,06,27,05,58,9.20
2008,06,27,05,59,9.20
2008,06,27,06,00,9.20
2008,06,27,06,01,9.20
2008,06,27,06,02,9.20
2008,06,27,06,03,9.20
2008,06,27,06,04,9.20
2008,06,27,06,05,9.30
2008,06,27,06,06,9.30
2008,06,27,06,07,9.30
2008,06,27,06,08,9.30
2008,06,27,06,09,9.40
2008,06,27,06,10,9.40
2008,06,27,06,11,9.40
2008,06,27,06,12,9.50
2008,06,27,06,13,9.50
2008,06,27,06,14,9.50
2008,06,27,06,15,9.50
2008,06,27,06,16,9.60
2008,06,27,06,17,9.60
2008,06,27,06,18,9.60
2008,06,27,06,19,9.70
2008,06,27,06,20,9.70
2008,06,27,06,21,9.70
2008,06,27,06,22,9.60
2008,06,27,06,23,9.60
2008,06,27,06,24,9.60
2008,06,27,06,25,9.60
2008,06,27,06,26,9.50
2008,06,27,06,27,9.50
2008,06,27,06,28,9.50
2008,06,27,06,29,9.50
2008,06,27,06,30,9.50
2008,06,27,06,31,9.50
2008,06,27,06,32,9.50
2008,06,27,06,33,9.50
2008,06,27,06,34,9.50
2008,06,27,06,35,9.50
2008,06,27,06,36,9.50
2008,06,27,06,37,9.50
2008,06,27,06,38,9.50
2008,06,27,06,39,9.50
2008,06,27,06,40,9.60
2008,06,27,06,41,9.70
2008,06,27,06,42,9.70
2008,06,27,06,43,9.70
2008,06,27,06,44,9.80
2008,06,27,06,45,9.90
2008,06,27,06,46,9.90
2008,06,27,06,47,9.90
2008,06,27,06,48,9.90
2008,06,27,06,49,10.00
2008,06,27,06,50,10.10
2008,06,27,06,51,10.10
2008,06,27,06,52,10.10
2008,06,27,06,53,10.10
2008,06,27,06,54,10.10
2008,06,27,06,55,10.20
2008,06,27,06,56,10.20
2008,06,27,06,57,10.20
2008,06,27,06,58,10.30
2008,06,27,06,59,10.30
2008,06,27,07,00,10.30
2008,06,27,07,01,10.30
2008,06,27,07,02,10.40
2008,06,27,07,03,10.40
2008,06,27,07,04,10.40
2008,06,27,07,05,10.40
2008,06,27,07,06,10.50
2008,06,27,07,07,10.60
2008,06,27,07,08,10.60
2008,06,27,07,09,10.60
2008,06,27,07,10,10.60
2008,06,27,07,11,10.60
2008,06,27,07,12,10.60
2008,06,27,07,13,10.70
2008,06,27,07,14,10.70
2008,06,27,07,15,10.70
2008,06,27,07,16,10.80
2008,06,27,07,17,10.80
2008,06,27,07,18,10.80
2008,06,27,07,19,10.90
2008,06,27,07,20,10.90
2008,06,27,07,21,10.90
2008,06,27,07,22,11.00
2008,06,27,07,23,11.10
2008,06,27,07,24,11.20
2008,06,27,07,25,11.20
2008,06,27,07,26,11.30
2008,06,27,07,27,11.30
2008,06,27,07,28,11.30
2008,06,27,07,29,11.40
2008,06,27,07,30,11.40
2008,06,27,07,31,11.40
2008,06,27,07,32,11.40
2008,06,27,07,33,11.50
2008,06,27,07,34,11.60
2008,06,27,07,35,11.70
2008,06,27,07,36,11.70
2008,06,27,07,37,11.80
2008,06,27,07,38,11.80
2008,06,27,07,39,11.90
2008,06,27,07,40,11.90
2008,06,27,07,41,12.00
2008,06,27,07,42,12.10
2008,06,27,07,43,12.20
2008,06,27,07,44,12.30
2008,06,27,07,45,12.30
2008,06,27,07,46,12.50
2008,06,27,07,47,12.50
2008,06,27,07,48,12.60
2008,06,27,07,49,12.70
2008,06,27,07,50,12.80
2008,06,27,07,51,12.80
2008,06,27,07,52,12.90
2008,06,27,07,53,13.00
2008,06,27,07,54,13.10
2008,06,27,07,55,13.20
2008,06,27,07,56,13.30
2008,06,27,07,57,13.40
2008,06,27,07,58,13.50
2008,06,27,07,59,13.60
2008,06,27,08,00,13.70
2008,06,27,08,01,13.80
2008,06,27,08,02,13.90
2008,06,27,08,03,14.00
2008,06,27,08,04,14.00
2008,06,27,08,05,14.10
2008,06,27,08,06,14.20
2008,06,27,08,07,14.30
2008,06,27,08,08,14.40
2008,06,27,08,09,14.50
2008,06,27,08,10,14.60
2008,06,27,08,11,14.60
2008,06,27,08,12,14.70
2008,06,27,08,13,14.80
2008,06,27,08,14,14.90
2008,06,27,08,15,15.10
2008,06,27,08,16,15.20
2008,06,27,08,17,15.30
2008,06,27,08,18,15.40
2008,06,27,08,19,15.40
2008,06,27,08,20,15.50
2008,06,27,08,21,15.60
2008,06,27,08,22,15.60
2008,06,27,08,23,15.60
2008,06,27,08,24,15.70
2008,06,27,08,25,15.70
2008,06,27,08,26,15.70
2008,06,27,08,27,15.70
2008,06,27,08,28,15.70
2008,06,27,08,29,15.60
2008,06,27,08,30,15.70
2008,06,27,08,31,15.70
2008,06,27,08,32,15.80
2008,06,27,08,33,15.80
2008,06,27,08,34,15.90
2008,06,27,08,35,16.00
2008,06,27,08,36,16.10
2008,06,27,08,37,16.20
2008,06,27,08,38,16.30
2008,06,27,08,39,16.30
2008,06,27,08,40,16.40
2008,06,27,08,41,16.40
2008,06,27,08,42,16.40
2008,06,27,08,43,16.40
2008,06,27,08,44,16.40
2008,06,27,08,45,16.40
2008,06,27,08,46,16.50
2008,06,27,08,47,16.60
2008,06,27,08,48,16.60
2008,06,27,08,49,16.60
2008,06,27,08,50,16.60
2008,06,27,08,51,16.60
2008,06,27,08,52,16.60
2008,06,27,08,53,16.60
2008,06,27,08,54,16.70
2008,06,27,08,55,16.70
2008,06,27,08,56,16.70
2008,06,27,08,57,16.70
2008,06,27,08,58,16.70
2008,06,27,08,59,16.60
2008,06,27,09,00,16.60
2008,06,27,09,01,16.60
2008,06,27,09,02,16.60
2008,06,27,09,03,16.60
2008,06,27,09,04,16.70
2008,06,27,09,05,16.80
2008,06,27,09,06,16.80
2008,06,27,09,07,16.90
2008,06,27,09,08,16.90
2008,06,27,09,09,16.90
2008,06,27,09,10,16.90
2008,06,27,09,11,16.80
2008,06,27,09,12,16.90
2008,06,27,09,13,16.90
2008,06,27,09,14,16.90
2008,06,27,09,15,16.90
2008,06,27,09,16,16.90
2008,06,27,09,17,16.90
2008,06,27,09,18,17.00
2008,06,27,09,19,17.00
2008,06,27,09,20,17.10
2008,06,27,09,21,17.10
2008,06,27,09,22,17.20
2008,06,27,09,23,17.30
2008,06,27,09,24,17.30
2008,06,27,09,25,17.40
2008,06,27,09,26,17.40
2008,06,27,09,27,17.40
2008,06,27,09,28,17.40
2008,06,27,09,29,17.50
2008,06,27,09,30,17.50
2008,06,27,09,31,17.50
2008,06,27,09,32,17.50
2008,06,27,09,33,17.50
2008,06,27,09,34,17.60
2008,06,27,09,35,17.60
2008,06,27,09,36,17.70
2008,06,27,09,37,17.70
2008,06,27,09,38,17.70
2008,06,27,09,39,17.80
2008,06,27,09,40,17.80
2008,06,27,09,41,17.70
2008,06,27,09,42,17.70
2008,06,27,09,43,17.70
2008,06,27,09,44,17.70
2008,06,27,09,45,17.70
2008,06,27,09,46,17.70
2008,06,27,09,47,17.60
2008,06,27,09,48,17.50
2008,06,27,09,49,17.50
2008,06,27,09,50,17.40
2008,06,27,09,51,17.40
2008,06,27,09,52,17.30
2008,06,27,09,53,17.30
2008,06,27,09,54,17.40
2008,06,27,09,55,17.50
2008,06,27,09,56,17.60
2008,06,27,09,57,17.60
2008,06,27,09,58,17.50
2008,06,27,09,59,17.50
2008,06,27,10,00,17.50
2008,06,27,10,01,17.50
2008,06,27,10,02,17.60
2008,06,27,10,03,17.70
2008,06,27,10,04,17.70
2008,06,27,10,05,17.70
2008,06,27,10,06,17.70
2008,06,27,10,07,17.70
2008,06,27,10,08,17.70
2008,06,27,10,09,17.70
2008,06,27,10,10,17.70
2008,06,27,10,11,17.80
2008,06,27,10,12,17.90
2008,06,27,10,13,17.90
2008,06,27,10,14,17.90
2008,06,27,10,15,17.90
2008,06,27,10,16,17.90
2008,06,27,10,17,17.90
2008,06,27,10,18,17.80
2008,06,27,10,19,17.70
2008,06,27,10,20,17.70
2008,06,27,10,21,17.70
2008,06,27,10,22,17.80
2008,06,27,10,23,17.70
2008,06,27,10,24,17.60
2008,06,27,10,25,17.60
2008,06,27,10,26,17.60
2008,06,27,10,27,17.70
2008,06,27,10,28,17.80
2008,06,27,10,29,17.90
2008,06,27,10,30,17.90
2008,06,27,10,31,17.90
2008,06,27,10,32,17.90
2008,06,27,10,33,17.90
2008,06,27,10,34,17.90
2008,06,27,10,35,17.90
2008,06,27,10,36,17.90
2008,06,27,10,37,17.90
2008,06,27,10,38,17.90
2008,06,27,10,39,17.90
2008,06,27,10,40,17.80
2008,06,27,10,41,17.80
2008,06,27,10,42,17.80
2008,06,27,10,43,17.80
2008,06,27,10,44,17.80
2008,06,27,10,45,17.70
2008,06,27,10,46,17.60
2008,06,27,10,47,17.60
2008,06,27,10,48,17.50
2008,06,27,10,49,17.50
2008,06,27,10,50,17.50
2008,06,27,10,51,17.60
2008,06,27,10,52,17.70
2008,06,27,10,53,17.70
2008,06,27,10,54,17.70
2008,06,27,10,55,17.70
2008,06,27,10,56,17.70
2008,06,27,10,57,17.70
2008,06,27,10,58,17.70
2008,06,27,10,59,17.70
2008,06,27,11,00,17.60
2008,06,27,11,01,17.70
2008,06,27,11,02,17.70
2008,06,27,11,03,17.70
2008,06,27,11,04,17.70
2008,06,27,11,05,17.70
2008,06,27,11,06,17.80
2008,06,27,11,07,17.90
2008,06,27,11,08,17.90
2008,06,27,11,09,18.00
2008,06,27,11,10,18.00
2008,06,27,11,11,17.90
2008,06,27,11,12,17.90
2008,06,27,11,13,18.00
2008,06,27,11,14,18.10
2008,06,27,11,15,18.10
2008,06,27,11,16,18.10
2008,06,27,11,17,18.10
2008,06,27,11,18,18.10
2008,06,27,11,19,18.20
2008,06,27,11,20,18.20
2008,06,27,11,21,18.30
2008,06,27,11,22,18.30
2008,06,27,11,23,18.30
2008,06,27,11,24,18.40
2008,06,27,11,25,18.40
2008,06,27,11,26,18.40
2008,06,27,11,27,18.30
2008,06,27,11,28,18.30
2008,06,27,11,29,18.30
2008,06,27,11,30,18.30
2008,06,27,11,31,18.30
2008,06,27,11,32,18.40
2008,06,27,11,33,18.40
2008,06,27,11,34,18.40
2008,06,27,11,35,18.30
2008,06,27,11,36,18.20
2008,06,27,11,37,18.20
2008,06,27,11,38,18.20
2008,06,27,11,39,18.30
2008,06,27,11,40,18.30
2008,06,27,11,41,18.50
2008,06,27,11,42,18.60
2008,06,27,11,43,18.70
2008,06,27,11,44,18.70
2008,06,27,11,45,18.70
2008,06,27,11,46,18.80
2008,06,27,11,47,18.70
2008,06,27,11,48,18.70
2008,06,27,11,49,18.70
2008,06,27,11,50,18.60
2008,06,27,11,51,18.60
2008,06,27,11,52,18.60
2008,06,27,11,53,18.60
2008,06,27,11,54,18.60
2008,06,27,11,55,18.50
2008,06,27,11,56,18.50
2008,06,27,11,57,18.50
2008,06,27,11,58,18.50
2008,06,27,11,59,18.60
2008,06,27,12,00,18.70
2008,06,27,12,01,18.70
2008,06,27,12,02,18.60
2008,06,27,12,03,18.50
2008,06,27,12,04,18.50
2008,06,27,12,05,18.50
2008,06,27,12,06,18.40
2008,06,27,12,07,18.40
2008,06,27,12,08,18.40
2008,06,27,12,09,18.40
2008,06,27,12,10,18.50
2008,06,27,12,11,18.40
2008,06,27,12,12,18.40
2008,06,27,12,13,18.40
2008,06,27,12,14,18.40
2008,06,27,12,15,18.40
2008,06,27,12,16,18.40
2008,06,27,12,17,18.40
2008,06,27,12,18,18.50
2008,06,27,12,19,18.60
2008,06,27,12,20,18.60
2008,06,27,12,21,18.70
2008,06,27,12,22,18.80
2008,06,27,12,23,18.80
2008,06,27,12,24,18.70
2008,06,27,12,25,18.70
2008,06,27,12,26,18.70
2008,06,27,12,27,18.70
2008,06,27,12,28,18.80
2008,06,27,12,29,18.80
2008,06,27,12,30,18.80
2008,06,27,12,31,18.80
2008,06,27,12,32,18.80
2008,06,27,12,33,18.80
2008,06,27,12,34,18.70
2008,06,27,12,35,18.70
2008,06,27,12,36,18.70
2008,06,27,12,37,18.70
2008,06,27,12,38,18.60
2008,06,27,12,39,18.60
2008,06,27,12,40,18.60
2008,06,27,12,41,18.70
2008,06,27,12,42,18.70
2008,06,27,12,43,18.80
2008,06,27,12,44,18.90
2008,06,27,12,45,18.90
2008,06,27,12,46,19.10
2008,06,27,12,47,19.10
2008,06,27,12,48,19.20
2008,06,27,12,49,19.30
2008,06,27,12,50,19.40
2008,06,27,12,51,19.40
2008,06,27,12,52,19.50
2008,06,27,12,53,19.50
2008,06,27,12,54,19.60
2008,06,27,12,55,19.70
2008,06,27,12,56,19.70
2008,06,27,12,57,19.80
2008,06,27,12,58,19.80
2008,06,27,12,59,19.60
2008,06,27,13,00,19.50
2008,06,27,13,01,19.50
2008,06,27,13,02,19.40
2008,06,27,13,03,19.30
2008,06,27,13,04,19.20
2008,06,27,13,05,19.10
2008,06,27,13,06,19.10
2008,06,27,13,07,19.10
2008,06,27,13,08,19.10
2008,06,27,13,09,19.10
2008,06,27,13,10,19.10
2008,06,27,13,11,19.10
2008,06,27,13,12,19.10
2008,06,27,13,13,19.10
2008,06,27,13,14,19.10
2008,06,27,13,15,19.20
2008,06,27,13,16,19.30
2008,06,27,13,17,19.40
2008,06,27,13,18,19.50
2008,06,27,13,19,19.40
2008,06,27,13,20,19.30
2008,06,27,13,21,19.10
2008,06,27,13,22,19.10
2008,06,27,13,23,19.10
2008,06,27,13,24,19.10
2008,06,27,13,25,19.10
2008,06,27,13,26,19.10
2008,06,27,13,27,19.10
2008,06,27,13,28,19.10
2008,06,27,13,29,19.20
2008,06,27,13,30,19.20
2008,06,27,13,31,19.10
2008,06,27,13,32,19.10
2008,06,27,13,33,19.10
2008,06,27,13,34,19.20
2008,06,27,13,35,19.20
2008,06,27,13,36,19.20
2008,06,27,13,37,19.30
2008,06,27,13,38,19.30
2008,06,27,13,39,19.30
2008,06,27,13,40,19.30
2008,06,27,13,41,19.10
2008,06,27,13,42,19.20
2008,06,27,13,43,19.10
2008,06,27,13,44,19.10
2008,06,27,13,45,19.10
2008,06,27,13,46,19.10
2008,06,27,13,47,19.20
2008,06,27,13,48,19.30
2008,06,27,13,49,19.30
2008,06,27,13,50,19.30
2008,06,27,13,51,19.30
2008,06,27,13,52,19.30
2008,06,27,13,53,19.30
2008,06,27,13,54,19.30
2008,06,27,13,55,19.30
2008,06,27,13,56,19.40
2008,06,27,13,57,19.40
2008,06,27,13,58,19.50
2008,06,27,13,59,19.50
2008,06,27,14,00,19.50
2008,06,27,14,01,19.60
2008,06,27,14,02,19.60
2008,06,27,14,03,19.60
2008,06,27,14,04,19.70
2008,06,27,14,05,19.80
2008,06,27,14,06,19.80
2008,06,27,14,07,19.90
2008,06,27,14,08,19.90
2008,06,27,14,09,19.90
2008,06,27,14,10,20.00
2008,06,27,14,11,20.10
2008,06,27,14,12,20.10
2008,06,27,14,13,20.10
2008,06,27,14,14,20.20
2008,06,27,14,15,20.20
2008,06,27,14,16,20.30
2008,06,27,14,17,20.40
2008,06,27,14,18,20.40
2008,06,27,14,19,20.40
2008,06,27,14,20,20.50
2008,06,27,14,21,20.50
2008,06,27,14,22,20.60
2008,06,27,14,23,20.60
2008,06,27,14,24,20.60
2008,06,27,14,25,20.60
2008,06,27,14,26,20.60
2008,06,27,14,27,20.60
2008,06,27,14,28,20.60
2008,06,27,14,29,20.50
2008,06,27,14,30,20.60
2008,06,27,14,31,20.60
2008,06,27,14,32,20.70
2008,06,27,14,33,20.70
2008,06,27,14,34,20.80
2008,06,27,14,35,20.90
2008,06,27,14,36,21.00
2008,06,27,14,37,21.10
2008,06,27,14,38,21.20
2008,06,27,14,39,21.30
2008,06,27,14,40,21.30
2008,06,27,14,41,21.30
2008,06,27,14,42,21.30
2008,06,27,14,43,21.30
2008,06,27,14,44,21.10
2008,06,27,14,45,21.00
2008,06,27,14,46,21.00
2008,06,27,14,47,21.00
2008,06,27,14,48,20.90
2008,06,27,14,49,20.90
2008,06,27,14,50,20.90
2008,06,27,14,51,20.90
2008,06,27,14,52,20.90
2008,06,27,14,53,20.80
2008,06,27,14,54,20.70
2008,06,27,14,55,20.70
2008,06,27,14,56,20.70
2008,06,27,14,57,20.60
2008,06,27,14,58,20.60
2008,06,27,14,59,20.60
2008,06,27,15,00,20.60
2008,06,27,15,01,20.60
2008,06,27,15,02,20.60
2008,06,27,15,03,20.60
2008,06,27,15,04,20.60
2008,06,27,15,05,20.60
2008,06,27,15,06,20.70
2008,06,27,15,07,20.70
2008,06,27,15,08,20.60
2008,06,27,15,09,20.60
2008,06,27,15,10,20.70
2008,06,27,15,11,20.70
2008,06,27,15,12,20.70
2008,06,27,15,13,20.70
2008,06,27,15,14,20.60
2008,06,27,15,15,20.70
2008,06,27,15,16,20.70
2008,06,27,15,17,20.70
2008,06,27,15,18,20.80
2008,06,27,15,19,20.80
2008,06,27,15,20,20.80
2008,06,27,15,21,20.90
2008,06,27,15,22,21.10
2008,06,27,15,23,21.20
2008,06,27,15,24,21.20
2008,06,27,15,25,21.30
2008,06,27,15,26,21.40
2008,06,27,15,27,21.60
2008,06,27,15,28,21.60
2008,06,27,15,29,21.70
2008,06,27,15,30,21.80
2008,06,27,15,31,21.90
2008,06,27,15,32,21.90
2008,06,27,15,33,22.00
2008,06,27,15,34,22.00
2008,06,27,15,35,22.00
2008,06,27,15,36,22.00
2008,06,27,15,37,22.00
2008,06,27,15,38,22.00
2008,06,27,15,39,22.00
2008,06,27,15,40,22.00
2008,06,27,15,41,22.00
2008,06,27,15,42,22.00
2008,06,27,15,43,22.00
2008,06,27,15,44,21.90
2008,06,27,15,45,21.70
2008,06,27,15,46,21.60
2008,06,27,15,47,21.60
2008,06,27,15,48,21.60
2008,06,27,15,49,21.70
2008,06,27,15,50,21.70
2008,06,27,15,51,21.70
2008,06,27,15,52,21.70
2008,06,27,15,53,21.70
2008,06,27,15,54,21.70
2008,06,27,15,55,21.70
2008,06,27,15,56,21.60
2008,06,27,15,57,21.70
2008,06,27,15,58,21.60
2008,06,27,15,59,21.60
2008,06,27,16,00,21.70
2008,06,27,16,01,21.70
2008,06,27,16,02,21.70
2008,06,27,16,03,21.80
2008,06,27,16,04,21.80
2008,06,27,16,05,21.90
2008,06,27,16,06,21.90
2008,06,27,16,07,21.90
2008,06,27,16,08,21.90
2008,06,27,16,09,21.90
2008,06,27,16,10,22.00
2008,06,27,16,11,22.00
2008,06,27,16,12,22.00
2008,06,27,16,13,22.00
2008,06,27,16,14,21.90
2008,06,27,16,15,22.00
2008,06,27,16,16,22.00
2008,06,27,16,17,22.10
2008,06,27,16,18,22.10
2008,06,27,16,19,22.20
2008,06,27,16,20,22.20
2008,06,27,16,21,22.20
2008,06,27,16,22,22.20
2008,06,27,16,23,22.10
2008,06,27,16,24,22.00
2008,06,27,16,25,21.90
2008,06,27,16,26,21.90
2008,06,27,16,27,21.90
2008,06,27,16,28,21.90
2008,06,27,16,29,21.90
2008,06,27,16,30,21.90
2008,06,27,16,31,21.80
2008,06,27,16,32,21.80
2008,06,27,16,33,21.80
2008,06,27,16,34,21.80
2008,06,27,16,35,21.80
2008,06,27,16,36,21.80
2008,06,27,16,37,21.80
2008,06,27,16,38,21.80
2008,06,27,16,39,21.90
2008,06,27,16,40,21.90
2008,06,27,16,41,21.80
2008,06,27,16,42,21.80
2008,06,27,16,43,21.90
2008,06,27,16,44,22.00
2008,06,27,16,45,22.10
2008,06,27,16,46,22.20
2008,06,27,16,47,22.20
2008,06,27,16,48,22.30
2008,06,27,16,49,22.40
2008,06,27,16,50,22.50
2008,06,27,16,51,22.60
2008,06,27,16,52,22.50
2008,06,27,16,53,22.50
2008,06,27,16,54,22.50
2008,06,27,16,55,22.50
2008,06,27,16,56,22.50
2008,06,27,16,57,22.50
2008,06,27,16,58,22.50
2008,06,27,16,59,22.60
2008,06,27,17,00,22.60
2008,06,27,17,01,22.50
2008,06,27,17,02,22.50
2008,06,27,17,03,22.40
2008,06,27,17,04,22.40
2008,06,27,17,05,22.30
2008,06,27,17,06,22.30
2008,06,27,17,07,22.20
2008,06,27,17,08,22.30
2008,06,27,17,09,22.40
2008,06,27,17,10,22.50
2008,06,27,17,11,22.50
2008,06,27,17,12,22.60
2008,06,27,17,13,22.70
2008,06,27,17,14,22.70
2008,06,27,17,15,22.70
2008,06,27,17,16,22.80
2008,06,27,17,17,22.80
2008,06,27,17,18,22.90
2008,06,27,17,19,22.90
2008,06,27,17,20,22.90
2008,06,27,17,21,22.90
2008,06,27,17,22,22.90
2008,06,27,17,23,22.80
2008,06,27,17,24,22.90
2008,06,27,17,25,22.90
2008,06,27,17,26,22.90
2008,06,27,17,27,22.80
2008,06,27,17,28,22.80
2008,06,27,17,29,22.70
2008,06,27,17,30,22.70
2008,06,27,17,31,22.70